Temp
11 11 11 11 11 10 10 10 10 10 10 9 9 9 9 9 9 9 9 9 9 9 9 9 9 9 8 8 8 8 9 9 9 9 9 9 9 9 9 9 9 9 9
12 11 11 11 11 11 10 10 10 10 10 9 9 9 9 9 9 9 9 9 9 9 9 9 8 9 8 8 8 9 9 9 9 9 9 10 9 9 9 9 9 9 9
12 11 11 11 11 11 10 10 10 10 9 9 9 9 9 9 8 9 9 9 9 9 9 9 8 8 8 8 8 9 9 9 9 9 9 10 9 9 9 9 9 9 9
12 12 12 11 11 11 11 10 10 10 10 9 9 9 9 8 8 9 9 9 9 9 9 8 8 8 8 8 8 9 9 9 9 9 9 9 10 9 9 9 9 9 9
12 12 12 12 11 11 11 10 10 10 10 9 9 9 9 9 8 9 9 9 9 9 9 8 8 8 8 8 8 9 9 9 9 9 9 9 10 9 9 9 9 9 9
12 12 12 12 11 11 11 10 10 10 10 9 9 9 9 9 9 9 9 9 9 9 9 9 8 8 8 8 8 8 8 9 9 9 9 9 9 9 9 9 9 9 9
12 12 12 12 11 11 11 10 10 10 10 10 9 9 9 9 9 9 9 9 9 9 9 9 8 8 8 8 8 8 9 9 9 9 9 9 9 9 9 9 9 9 9
12 12 12 12 11 11 11 11 10 10 10 10 9 9 9 9 9 9 9 8 9 8 9 9 8 8 8 8 8 8 8 8 9 8 9 9 9 9 9 9 9 9 9
11 11 12 12 12 11 11 11 10 10 10 10 9 9 8 9 9 9 9 9 8 8 8 9 8 8 8 8 7 7 7 7 7 8 8 9 9 9 9 9 9 9 9
11 10 11 12 11 11 11 11 10 10 10 9 9 9 9 9 9 9 9 9 9 8 8 8 8 8 8 7 7 7 7 7 8 8 8 8 9 9 9 9 9 9 9
10 11 11 12 12 11 11 11 11 10 10 10 9 9 9 9 9 9 9 9 9 8 8 8 8 8 8 8 7 7 8 7 8 8 8 8 8 9 9 9 9 9 9
13 12 12 12 12 11 11 11 11 11 10 10 9 9 9 9 8 8 9 9 9 8 8 8 8 8 8 8 8 7 8 7 7 8 8 7 8 8 8 8 9 9 9
13 13 12 12 12 12 11 11 11 11 11 10 10 10 9 8 9 8 9 9 9 9 8 8 8 8 8 8 8 7 7 7 8 8 7 7 8 7 8 8 8 8 9
12 12 13 12 12 12 12 11 11 11 11 11 10 10 9 10 9 7 9 9 9 8 8 9 8 8 7 8 8 7 8 7 7 8 8 8 7 7 7 7 7 8 8
11 13 13 12 12 12 12 12 12 11 11 11 10 10 10 10 10 10 9 9 8 9 8 8 8 8 8 7 8 8 8 8 7 8 8 8 7 7 7 7 6 7 8
11 11 13 12 12 12 12 11 11 11 12 12 11 10 10 10 9 9 9 9 9 9 9 9 9 9 8 8 8 8 8 8 8 8 8 7 7 7 7 6 6 7 8
11 10 12 11 11 12 12 12 12 11 11 11 10 9 9 10 10 9 9 9 10 9 9 8 8 9 8 8 8 7 8 9 8 7 7 8 7 8 7 7 6 6 7
11 10 9 11 11 11 11 11 11 11 11 8 10 10 10 10 10 10 9 9 9 9 8 8 8 8 8 8 8 8 8 8 8 8 8 7 7 8 7 7 6 6 6
10 10 11 11 11 11 11 11 11 10 10 10 10 10 10 10 10 10 10 10 9 9 9 9 8 8 8 9 9 8 8 8 8 8 8 7 7 7 7 7 7 7 5
10 12 12 12 12 12 11 12 11 11 10 10 11 11 12 11 10 10 10 10 10 9 10 9 9 9 9 9 9 9 8 8 8 8 8 8 7 7 7 7 7 6 6
13 12 12 12 12 12 12 12 12 11 11 11 10 11 11 12 11 10 10 9 9 9 9 9 9 9 9 9 8 9 8 8 8 8 8 7 8 8 7 7 7 7 7
13 13 13 12 12 12 12 12 12 11 11 11 11 11 11 11 10 10 10 9 9 9 9 9 9 8 9 9 9 9 9 8 8 8 8 8 8 8 8 8 8 8 8
15 14 14 13 12 12 12 12 11 11 12 12 11 11 10 10 10 10 10 9 9 9 9 9 8 8 8 9 9 9 9 9 8 8 8 9 9 9 8 8 8 8 8
15 14 14 13 13 12 12 12 11 11 11 11 10 10 10 10 10 10 9 9 9 9 9 8 8 8 8 9 9 9 9 9 9 8 8 8 9 9 9 8 8 8 9
16 15 15 14 14 13 12 12 12 11 11 10 10 10 10 10 9 10 9 9 9 9 9 8 8 8 8 9 9 9 9 8 9 9 9 8 9 9 9 9 8 8 9
15 15 15 14 14 13 13 12 12 12 11 10 10 10 11 11 10 9 10 9 9 9 8 9 8 9 9 9 9 9 9 9 8 8 9 8 8 9 9 9 9 9 10
Height
3177 3180 3182 3183 3185 3186 3187 3188 3189 3190 3191 3193 3194 3195 3196 3197 3197 3198 3199 3199 3200 3201 3201 3202 3204 3204 3205 3207 3208 3208 3210 3211 3211 3212 3213 3214 3215 3216 3218 3218 3219 3220 3221
3179 3180 3182 3183 3186 3187 3189 3190 3190 3190 3192 3194 3195 3196 3197 3197 3198 3198 3199 3200 3201 3202 3203 3204 3205 3206 3207 3209 3210 3211 3211 3213 3213 3215 3216 3217 3217 3219 3220 3221 3223 3223 3225
3180 3181 3183 3184 3186 3189 3190 3191 3192 3192 3193 3195 3196 3197 3198 3197 3197 3198 3199 3200 3202 3203 3204 3206 3208 3208 3209 3211 3212 3213 3214 3215 3215 3216 3218 3219 3220 3221 3223 3224 3226 3226 3227
3180 3182 3183 3185 3187 3190 3192 3192 3193 3194 3195 3197 3198 3198 3198 3198 3196 3197 3199 3201 3203 3204 3205 3207 3209 3211 3212 3213 3214 3215 3216 3218 3219 3219 3220 3222 3223 3224 3225 3227 3228 3229 3230
3180 3183 3185 3186 3187 3190 3192 3193 3194 3195 3197 3197 3198 3199 3200 3200 3199 3199 3201 3202 3204 3205 3207 3209 3211 3212 3214 3214 3216 3217 3218 3219 3221 3222 3223 3224 3226 3226 3228 3229 3231 3232 3233
3181 3183 3185 3187 3188 3190 3192 3194 3196 3197 3198 3198 3199 3200 3201 3202 3202 3202 3203 3204 3205 3207 3209 3211 3213 3213 3215 3216 3218 3219 3220 3220 3222 3225 3225 3225 3228 3229 3231 3232 3233 3234 3235
3182 3183 3185 3187 3189 3191 3193 3194 3196 3197 3199 3199 3200 3200 3202 3203 3204 3204 3205 3206 3207 3209 3211 3213 3215 3216 3216 3217 3219 3220 3222 3222 3225 3226 3227 3228 3229 3231 3233 3234 3235 3235 3235
3184 3184 3186 3188 3190 3191 3192 3194 3196 3197 3199 3200 3201 3202 3202 3203 3205 3206 3206 3208 3209 3210 3212 3214 3215 3217 3219 3219 3220 3220 3222 3224 3226 3226 3228 3231 3232 3232 3234 3236 3236 3237 3238
3184 3186 3186 3188 3191 3192 3193 3195 3197 3198 3199 3200 3202 3202 3203 3204 3205 3207 3208 3209 3210 3211 3213 3215 3216 3217 3219 3221 3220 3220 3222 3223 3225 3226 3228 3231 3233 3234 3235 3236 3238 3239 3240
3183 3185 3187 3188 3191 3192 3194 3195 3197 3198 3200 3201 3202 3203 3204 3204 3205 3207 3209 3210 3211 3213 3213 3215 3217 3218 3218 3220 3220 3221 3221 3223 3225 3227 3229 3230 3232 3234 3235 3237 3239 3240 3242
3183 3184 3186 3189 3190 3192 3194 3195 3197 3199 3200 3201 3202 3204 3204 3204 3204 3206 3208 3210 3212 3212 3213 3215 3216 3217 3218 3218 3220 3221 3221 3222 3224 3226 3228 3230 3233 3234 3236 3237 3240 3242 3242
3181 3183 3185 3188 3190 3192 3193 3195 3197 3199 3201 3202 3201 3203 3204 3205 3205 3206 3207 3209 3211 3212 3213 3215 3216 3217 3217 3218 3218 3219 3221 3222 3223 3226 3228 3229 3232 3234 3236 3238 3239 3243 3244
3179 3183 3186 3187 3190 3192 3193 3195 3196 3198 3201 3202 3201 3202 3203 3204 3204 3205 3206 3208 3209 3211 3213 3214 3215 3215 3216 3217 3216 3219 3220 3222 3224 3225 3228 3228 3232 3233 3235 3236 3239 3243 3244
3175 3180 3185 3187 3188 3191 3193 3195 3196 3198 3200 3202 3203 3203 3203 3203 3203 3204 3204 3206 3210 3211 3212 3213 3214 3214 3215 3216 3216 3217 3217 3213 3224 3225 3227 3229 3231 3232 3233 3235 3237 3242 3244
3176 3177 3181 3185 3187 3189 3192 3193 3196 3198 3199 3201 3201 3202 3203 3203 3204 3204 3205 3207 3209 3209 3211 3213 3213 3213 3214 3214 3214 3215 3217 3218 3221 3221 3226 3227 3228 3230 3230 3234 3235 3240 3244
3177 3177 3178 3182 3184 3186 3190 3192 3194 3197 3198 3200 3200 3200 3202 3204 3205 3205 3206 3207 3208 3208 3208 3210 3211 3213 3213 3213 3214 3214 3214 3214 3217 3220 3223 3224 3224 3226 3228 3230 3233 3237 3242
3177 3176 3177 3181 3184 3185 3187 3189 3193 3195 3195 3197 3200 3201 3202 3203 3204 3206 3207 3207 3208 3209 3209 3209 3210 3210 3212 3212 3212 3213 3211 3212 3215 3217 3219 3220 3223 3225 3226 3227 3230 3234 3238
3176 3175 3177 3180 3183 3184 3186 3189 3191 3193 3195 3195 3197 3200 3202 3202 3203 3205 3206 3207 3207 3206 3207 3209 3210 3210 3210 3211 3212 3211 3211 3210 3213 3215 3217 3219 3221 3222 3224 3225 3227 3230 3233
3174 3173 3177 3180 3181 3184 3185 3187 3189 3190 3192 3193 3195 3198 3200 3200 3201 3203 3205 3207 3207 3207 3208 3209 3209 3209 3208 3209 3209 3209 3210 3210 3209 3212 3214 3216 3219 3221 3221 3223 3224 3227 3229
3172 3174 3176 3177 3179 3181 3183 3185 3187 3190 3191 3192 3193 3196 3198 3199 3201 3201 3202 3204 3205 3206 3207 3208 3206 3208 3207 3208 3207 3209 3209 3209 3210 3210 3212 3214 3216 3219 3220 3221 3221 3223 3225
3174 3173 3175 3176 3176 3179 3181 3184 3186 3188 3191 3191 3192 3193 3194 3198 3199 3200 3200 3202 3203 3203 3204 3206 3207 3206 3206 3206 3206 3206 3207 3208 3207 3208 3210 3211 3213 3215 3217 3218 3219 3220 3223
3172 3173 3174 3175 3175 3177 3179 3181 3183 3186 3188 3190 3190 3192 3193 3195 3196 3197 3199 3199 3200 3201 3202 3202 3204 3204 3204 3203 3203 3202 3203 3206 3205 3204 3207 3208 3210 3212 3214 3215 3215 3217 3221
3170 3171 3172 3173 3174 3175 3177 3178 3180 3182 3184 3187 3189 3189 3191 3192 3193 3195 3197 3198 3198 3199 3199 3199 3200 3201 3201 3201 3201 3202 3201 3202 3202 3204 3204 3205 3207 3208 3211 3212 3214 3215 3220
3169 3170 3170 3172 3173 3174 3174 3175 3177 3179 3181 3184 3186 3186 3188 3190 3191 3192 3192 3194 3194 3195 3196 3196 3196 3197 3198 3199 3199 3200 3199 3199 3200 3201 3202 3203 3204 3205 3207 3209 3211 3214 3218
3168 3169 3170 3171 3171 3173 3173 3173 3175 3176 3177 3180 3182 3182 3185 3187 3188 3188 3189 3190 3191 3191 3192 3192 3191 3192 3192 3195 3195 3196 3196 3196 3197 3197 3199 3201 3201 3202 3204 3206 3208 3211 3215
3167 3168 3169 3170 3170 3170 3171 3171 3172 3172 3174 3175 3177 3177 3180 3183 3184 3185 3186 3186 3186 3186 3186 3186 3185 3185 3188 3190 3191 3192 3193 3194 3192 3194 3195 3197 3198 3200 3202 3204 3206 3209 3212
Wind_Speed
23 18 19 18 16 16 17 17 16 17 16 16 14 12 11 10 8 8 8 8 9 9 9 10 13 13 17 17 16 16 15 16 17 18 17 17 19 19 20 22 22 23 23
19 19 19 18 17 16 17 16 16 16 15 15 12 11 10 9 7 7 8 8 10 10 11 12 15 17 19 19 16 15 16 16 17 16 17 18 20 20 21 21 21 22 23
18 19 18 18 17 16 16 17 15 15 15 13 11 10 10 8 6 8 10 10 10 10 12 13 16 19 17 16 13 11 12 14 18 18 17 16 20 20 20 20 19 21 21
18 18 18 17 17 16 15 15 15 14 13 12 10 9 10 11 10 13 12 11 10 10 12 14 15 15 14 13 12 10 11 12 12 15 18 15 18 18 18 18 19 19 19
19 17 16 17 16 16 15 14 14 13 13 11 10 9 10 12 15 16 13 12 10 10 11 13 14 13 12 12 11 10 12 11 13 12 17 16 15 17 17 18 19 19 19
19 17 16 16 16 16 15 13 12 11 12 11 11 10 9 11 13 14 12 10 9 9 9 10 12 12 11 10 8 9 10 11 15 11 14 16 14 16 17 18 18 18 18
19 17 15 15 15 15 14 13 12 10 9 9 9 10 8 8 10 10 9 8 7 7 8 9 10 10 9 8 7 8 9 10 12 12 12 12 14 15 16 17 17 17 18
15 16 15 13 13 14 13 12 10 10 8 6 6 7 7 6 7 8 9 9 9 8 7 7 8 9 8 6 5 5 6 8 13 12 13 11 13 14 16 16 16 16 16
9 10 12 12 12 12 12 11 10 8 7 4 4 4 2 5 6 6 7 8 9 9 8 7 7 7 8 8 7 5 6 4 7 8 12 12 13 13 15 15 15 14 16
5 7 12 12 11 10 10 8 7 7 5 5 5 4 4 5 5 6 6 7 8 9 9 8 8 7 7 9 9 7 5 6 7 14 15 13 13 14 14 14 14 15 16
12 11 13 12 11 10 9 8 5 4 4 5 6 4 5 5 6 6 7 6 7 7 7 8 8 7 6 7 8 7 6 4 5 9 16 15 14 13 14 15 12 14 16
11 14 13 12 11 10 9 8 6 3 2 3 3 3 3 4 5 6 8 9 8 6 5 5 5 5 5 4 6 8 6 6 6 7 13 13 14 14 13 13 13 12 16
8 11 16 15 13 11 9 8 7 5 3 2 1 3 2 3 2 8 4 9 10 7 4 2 2 3 4 4 6 5 4 8 3 14 15 14 15 17 16 13 10 11 15
12 10 13 15 13 10 10 8 7 7 4 4 5 2 1 2 4 6 4 9 8 8 4 4 3 3 3 2 4 6 7 8 5 5 18 10 15 17 18 15 10 16 16
17 11 9 12 13 11 12 10 7 6 6 6 6 2 1 5 5 6 7 6 10 8 5 4 2 1 1 5 5 10 10 3 5 12 13 11 12 16 16 18 14 18 16
5 12 7 10 13 12 11 12 10 7 8 6 6 3 0 2 4 5 5 4 4 2 4 4 3 1 2 5 6 11 11 8 2 5 8 7 8 13 14 13 23 22 22
5 10 4 7 10 13 10 8 6 5 6 3 2 4 5 5 1 2 4 3 1 1 2 5 4 6 5 4 6 9 9 6 6 7 8 6 7 12 13 16 22 30 26
8 12 15 13 11 14 12 10 9 8 10 5 7 4 8 9 5 3 3 3 3 5 4 6 5 5 7 7 7 8 10 12 9 12 13 10 9 8 14 14 18 22 34
14 19 10 10 11 13 17 14 12 13 13 11 13 10 7 9 8 7 6 5 5 4 6 7 5 6 6 8 9 5 7 11 11 11 12 16 10 8 11 15 18 17 28
24 13 12 8 7 9 16 17 16 16 16 18 17 14 9 7 9 10 10 7 7 8 9 10 8 9 13 10 5 7 7 9 13 14 7 12 13 12 11 13 16 18 24
15 16 11 7 7 5 4 6 13 15 16 18 20 17 15 7 7 11 11 10 10 14 14 12 12 8 10 8 8 11 11 11 11 14 13 11 16 14 11 13 15 15 35
7 9 3 6 8 7 3 4 7 10 11 13 15 11 13 9 10 12 11 12 12 14 14 13 12 11 10 9 7 9 10 11 11 16 10 11 13 13 14 12 12 13 41
2 1 1 2 5 7 7 8 9 10 10 10 6 5 4 7 9 10 10 11 15 17 17 16 15 15 13 11 11 10 10 10 10 9 8 11 15 13 13 13 16 18 38
4 3 1 3 5 6 8 8 12 12 13 10 12 11 8 9 11 11 13 14 13 15 17 19 19 17 17 13 12 12 11 10 11 10 10 12 15 15 13 15 18 21 38
8 7 4 3 7 7 9 8 9 12 15 16 17 18 14 13 14 14 14 13 13 15 17 18 18 21 22 16 14 13 10 10 13 14 10 9 15 16 12 15 16 20 32
5 5 7 6 3 9 10 11 9 9 12 18 19 18 15 13 13 18 17 17 18 17 21 21 23 18 20 19 16 14 11 12 12 16 15 13 13 16 15 15 16 19 27
Wind_Direction
143 145 139 138 137 135 128 126 124 119 115 112 108 105 99 101 116 123 121 114 110 104 104 103 106 111 121 118 105 98 96 100 102 110 113 113 115 115 114 111 108 108 108
141 144 141 136 136 136 131 129 127 124 119 118 113 104 96 95 100 123 126 119 114 109 109 109 109 112 116 117 110 104 104 106 109 111 114 120 120 117 117 112 112 111 112
146 143 142 139 137 138 134 131 129 125 123 123 116 101 80 65 66 139 134 128 120 113 106 117 118 116 114 112 110 109 107 117 120 123 121 123 123 121 119 115 117 115 113
147 145 143 142 140 140 135 133 131 127 125 124 114 97 77 60 65 130 129 126 119 114 109 115 124 122 127 120 120 116 104 105 121 121 119 122 129 127 123 121 118 119 116
150 146 146 144 141 140 138 136 131 131 127 121 111 94 84 76 84 112 119 118 118 115 114 116 120 129 128 125 116 109 106 111 115 138 126 120 135 135 129 127 122 119 117
151 147 149 145 143 142 139 136 134 131 127 125 118 104 89 86 90 104 109 109 114 113 116 122 119 127 130 132 129 126 117 110 112 117 128 126 137 143 134 132 129 127 122
154 147 150 148 148 145 142 141 137 130 128 127 123 115 102 93 95 99 105 103 98 106 118 123 131 131 135 137 133 126 118 130 131 136 130 140 140 145 142 140 137 134 129
152 148 152 152 152 149 147 143 137 134 133 127 121 118 114 114 106 106 103 104 95 96 115 118 136 144 146 143 144 141 123 136 144 131 138 146 149 146 151 151 142 138 135
153 159 158 159 158 157 149 146 142 131 131 106 121 97 115 140 135 117 111 103 101 98 104 109 125 143 147 149 155 159 154 158 142 156 146 153 163 152 154 158 155 150 145
189 200 175 169 166 162 155 150 143 143 129 93 107 85 94 136 124 155 134 116 107 104 104 114 120 135 150 155 164 182 196 198 182 170 163 160 161 161 159 161 165 162 154
199 200 181 178 176 168 164 151 145 144 133 93 95 91 113 111 120 140 165 145 126 116 113 115 121 135 154 170 188 195 220 229 188 165 165 164 165 163 165 161 168 175 166
183 192 186 185 187 178 172 159 148 143 101 112 116 116 156 104 106 128 166 159 158 144 133 128 133 146 170 193 211 210 240 224 198 193 173 173 173 170 168 170 163 189 182
201 167 188 190 189 192 186 172 158 160 161 177 213 128 148 92 82 111 158 162 172 160 150 169 195 207 212 227 267 196 233 239 328 231 191 182 183 181 185 165 194 204 197
234 222 175 185 197 199 190 191 187 172 189 194 218 177 211 127 88 114 129 144 172 161 170 247 228 222 290 274 252 283 255 224 160 150 216 199 197 192 202 209 250 211 209
231 243 196 185 197 210 196 199 216 217 206 191 228 201 29 63 58 73 78 130 175 195 149 188 215 277 354 326 299 271 274 222 156 149 193 198 202 198 205 224 213 198 205
225 250 222 189 203 218 210 200 213 225 239 194 183 238 318 71 61 29 55 104 210 142 131 85 2 66 289 278 279 272 288 291 197 196 195 191 216 216 205 209 194 189 199
220 245 266 266 236 235 234 233 211 217 241 252 268 232 249 278 316 55 341 350 337 355 23 27 347 355 336 305 246 256 287 287 231 211 209 204 226 216 210 200 206 203 203
224 238 238 283 261 240 242 247 252 246 255 271 276 255 232 256 254 245 236 298 313 325 332 275 279 294 291 292 266 262 257 253 240 235 239 232 227 228 219 212 212 216 220
220 232 241 273 277 250 244 237 238 253 259 260 261 263 240 235 255 264 253 248 269 272 297 299 303 291 287 301 293 262 255 241 250 244 245 229 234 232 212 224 225 219 216
226 249 266 278 253 221 224 236 234 237 248 262 268 267 250 232 229 243 257 254 247 252 295 305 287 280 315 294 282 275 240 235 236 238 229 203 229 230 231 221 224 222 208
221 243 262 273 276 257 225 219 235 245 249 257 261 267 274 265 257 253 254 257 256 269 283 290 279 291 279 292 285 291 248 245 238 226 230 234 227 219 222 222 222 218 188
232 246 250 222 254 259 244 223 225 226 235 247 250 252 261 259 247 253 260 270 269 264 262 271 273 281 286 283 299 296 273 266 238 227 231 214 208 217 222 223 213 214 184
144 246 44 225 252 269 257 239 241 246 250 251 251 252 245 244 256 251 252 272 273 263 266 265 263 267 281 282 273 275 280 277 244 235 241 216 215 224 215 218 197 195 186
122 138 144 222 249 252 271 271 262 260 264 271 266 274 269 257 264 265 270 289 266 272 266 263 262 265 268 270 273 264 275 247 250 234 234 221 224 221 211 215 216 197 194
117 115 137 236 259 258 271 287 275 267 265 262 262 265 270 266 265 270 264 297 278 270 273 277 267 258 252 252 263 259 272 250 250 239 231 226 227 230 216 212 208 210 203
147 111 97 95 241 262 261 273 285 283 263 260 259 268 266 264 264 266 270 277 281 279 276 285 271 268 248 241 253 259 259 268 260 233 241 244 229 229 227 225 220 211 207